Regional Weather Roundup
Issued by NWS

Home | Current Version | Previous Version | Graphics & Text | Print | Product List | Glossary On
Versions: 1 2 3 4 5 6 7 8 9 10 11 12 13 14 15 16 17 18 19 20 21 22 23 24 25 26 27 28 29 30 31 32 33 34 35 36 37 38 39 40 41 42 43 44 45 46 47 48 49 50
000
ASUS43 KLMK 192210
RWRKY
KENTUCKY REGIONAL WEATHER ROUNDUP
NATIONAL WEATHER SERVICE LOUISVILLE KY
500 PM EST MON FEB 19 2018

NOTE "FAIR" INDICATES FEW OR NO CLOUDS BELOW 12,000 FEET
WITH NO SIGNIFICANT WEATHER AND/OR OBSTRUCTIONS TO VISIBILITY.

KYZ001>023-026-027-061>063-070>075-192300-
WESTERN AND SOUTH CENTRAL KENTUCKY

CITY           SKY/WX    TMP DP  RH WIND       PRES   REMARKS
PADUCAH        FAIR      74  56  53 S12G32    29.99R
HENDERSON      PTSUNNY   73  56  54 S18G28    30.00R
OWENSBORO      FAIR      74  56  53 S17G26    30.01R
HOPKINSVILLE   FAIR      74  54  49 S14G26    30.05S
BOWLING GREEN  FAIR      74  56  53 S17G24    30.10S
GLASGOW        FAIR      73  54  51 S14G22    30.11S
$$

KYZ024-025-028>034-038-045-046-053-192300-
NORTH CENTRAL KENTUCKY

CITY           SKY/WX    TMP DP  RH WIND       PRES   REMARKS
LOUISVILLE/SDF CLOUDY    75  54  47 S23G33    30.04R
LOUISVILLE/LOU FAIR      75  55  49 S23G38    30.04R
FORT KNOX      PTSUNNY   72  55  53 S21G26    30.06S
$$

KYZ035>037-039>044-047>052-055>060-089>105-192300-
NORTHEAST KENTUCKY

CITY           SKY/WX    TMP DP  RH WIND       PRES   REMARKS
LEXINGTON      FAIR      72  57  59 S17G29    30.11S
COVINGTON      CLOUDY    73  57  57 S14G23    30.03S
FRANKFORT      FAIR      74  55  51 SW18G28   30.07S
$$

KYZ054-064>069-076>088-106>120-192300-
SOUTHEAST KENTUCKY

CITY           SKY/WX    TMP DP  RH WIND       PRES   REMARKS
JACKSON        CLOUDY    70  53  54 S9G20     30.18R
LONDON         FAIR      69  53  56 S16G29    30.19R
SOMERSET       FAIR      70  54  56 MISG      30.17S
MIDDLESBORO    PTSUNNY   68  56  66 CALM      30.22S
MONTICELLO     NOT AVBL
$$





USA.gov is the U.S. government's official web portal to all federal, state and local government web resources and services.